User: anonymous   Login
Location: Owatonna
(44.0840°N, 93.2260°W)
Time: 11:33:16
(UTC-05:00)
Language:

Cosmos 839 Rocket - Orbit

View from above orbital plane
View from above orbital plane
View from above satellite
View from above satellite

Ground track
Ground track

The orbit data is extracted from the following two-line orbital elements,

1 09013U 76067B   15182.03085397 -.00000086  00000-0 -10072-3 0  9990
2 09013 065.8654 318.9044 0715567 353.3548 121.2095 12.35316866758067
Epoch (UTC): 01 July 2015 00:44:25
Eccentricity: 0.0715567
inclination: 65.8654°
perigee height: 961 km
apogee height: 2092 km
right ascension of ascending node: 318.9044°
argument of perigee: 353.3548°
revolutions per day: 12.35316866
mean anomaly at epoch: 121.2095°
orbit number at epoch: 75806

The dashed part of the orbit path shows where the satellite is in the earth's shadow,  

DLR